Terminal Aerodrome Forecast
Issued by NWS

Home | Current Version | Previous Version | Graphics & Text | Print | Product List | Glossary On
Versions: 1 2 3 4 5 6 7 8 9 10 11 12 13 14 15 16 17 18 19 20 21 22 23 24 25 26 27 28 29 30 31 32 33 34 35 36 37 38 39 40 41
000
FTUS43 KLOT 051738
TAFMDW
TAF
KMDW 051738Z 0518/0618 02009KT 5SM BR SCT006 BKN015 OVC050
     FM052000 02010KT 5SM BR VCSH SCT006 BKN010 BKN050
     FM060200 05006KT 2SM BR OVC004
     FM061300 11005KT 4SM BR OVC007
     FM061500 20005KT P6SM SCT020 BKN040=

USA.gov is the U.S. government's official web portal to all federal, state and local government web resources and services.